Date String (YYYY-MM-DD hh:mm:ss) UTC,Instrument flags,absolute air pressure of the measurement (hPa),sample flow rate (lpm),inlet stack bypass flow (lpm),air temperature of the measurement (°C),ambient temperature measured by the external sensor (°C),aerosol sample conditioner tube jacket temperature (°C),OPC LED temperature (°C),internal box temperature (°C),relative humidity of the measurement (%),span deviation,mass concentration of particles derived from Lorenz-Mie calculation of OPC scattering (μg/m³),mass concentration of particles derived from Lorenz-Mie calculation of OPC scattering (μg/m³),mass concentration of particles derived from Lorenz-Mie calculation of OPC scattering (μg/m³)
DateTimeUTC,F1_M11,P_M11,Q1_M11,Q2_M11,T1_M11,T2_M11,T3_M11,T4_M11,T5_M11,U1_M11,ZSPAN_M11,X0_M11,X2_M11,X1_M11
2023-07-19 11:00:00,SystemResetWarning,0833.8,5.00,000.00,029.2,025.7,000.0,037.6,030.5,25.4,0000.0,0007.56,0004.17,0003.79
2023-07-19 11:01:00,SystemResetWarning,0833.9,4.99,000.00,029.2,026.1,000.0,037.6,030.5,25.5,0000.0,0007.78,0004.13,0003.79
2023-07-19 11:02:00,SystemResetWarning,0833.9,5.00,000.00,029.2,026.4,000.0,037.6,030.6,25.4,0000.0,0008.46,0004.15,0003.78
2023-07-19 11:03:00,SystemResetWarning,0833.9,5.01,000.00,029.2,026.8,000.0,037.7,030.7,25.5,0000.0,0008.56,0004.18,0003.78
2023-07-19 11:04:00,SystemResetWarning,0834.0,5.01,000.00,029.2,027.1,000.0,037.7,030.8,25.5,0000.0,0008.60,0004.18,0003.78
2023-07-19 11:05:00,SystemResetWarning,0834.0,5.00,000.00,029.2,027.4,000.0,037.7,030.8,25.5,0000.0,0008.62,0004.17,0003.77
2023-07-19 11:06:00,SystemResetWarning,0834.0,4.99,000.00,029.2,027.6,000.0,037.7,030.9,25.4,0000.0,0008.65,0004.18,0003.77
2023-07-19 11:07:00,SystemResetWarning,0834.0,5.00,000.00,029.3,027.8,000.0,037.7,030.9,25.5,0000.0,0008.93,0004.23,0003.77
2023-07-19 11:08:00,SystemResetWarning,0834.0,5.00,000.00,029.3,027.9,000.0,037.7,031.0,25.8,0000.0,0009.37,0004.28,0003.77
2023-07-19 11:09:00,SystemResetWarning,0834.1,5.00,000.00,029.3,028.1,000.0,037.8,031.0,25.4,0000.0,0009.58,0004.32,0003.78
2023-07-19 11:10:00,SystemResetWarning,0834.1,5.00,000.00,029.4,028.2,000.0,037.8,031.1,25.2,0000.0,0009.55,0004.31,0003.78
2023-07-19 11:11:00,SystemResetWarning,0834.1,5.00,000.00,029.4,028.3,000.0,037.8,031.1,25.0,0000.0,0009.83,0004.33,0003.79
2023-07-19 11:12:00,SystemResetWarning,0834.1,4.98,000.00,029.4,027.7,000.0,037.8,031.1,24.8,0000.0,0009.73,0004.38,0003.80
2023-07-19 11:13:00,SystemResetWarning,0834.1,5.00,000.00,029.4,026.0,000.0,037.7,030.8,24.7,0000.0,0009.10,0004.38,0003.82
2023-07-19 11:14:00,SystemResetWarning,0834.1,5.02,000.00,029.3,025.5,000.0,037.6,030.6,24.8,0000.0,0009.09,0004.40,0003.84
2023-07-19 11:15:00,SystemResetWarning,0834.1,4.99,000.00,029.2,025.7,000.0,037.6,030.5,25.1,0000.0,0009.44,0004.43,0003.85
2023-07-19 11:16:00,SystemResetWarning,0834.1,5.00,000.00,029.2,026.1,000.0,037.6,030.5,25.1,0000.0,0009.50,0004.43,0003.86
2023-07-19 11:17:00,SystemResetWarning,0834.1,5.00,000.00,029.2,026.5,000.0,037.7,030.6,25.0,0000.0,0009.59,0004.40,0003.86
2023-07-19 11:18:00,SystemResetWarning,0834.1,5.00,000.00,029.2,026.8,000.0,037.7,030.7,24.8,0000.0,0009.72,0004.40,0003.87
2023-07-19 11:19:00,SystemResetWarning,0834.1,5.01,000.00,029.2,027.1,000.0,037.7,030.7,25.0,0000.0,0009.11,0004.41,0003.87
2023-07-19 11:20:00,SystemResetWarning,0834.1,4.99,000.00,029.2,027.3,000.0,037.7,030.8,25.0,0000.0,0009.31,0004.41,0003.88
2023-07-19 11:21:00,SystemResetWarning,0834.1,4.99,000.00,029.2,027.6,000.0,037.7,030.9,24.5,0000.0,0009.48,0004.46,0003.88
2023-07-19 11:22:00,SystemResetWarning,0834.1,4.99,000.00,029.3,027.7,000.0,037.7,030.9,24.4,0000.0,0009.20,0004.48,0003.87
2023-07-19 11:23:00,SystemResetWarning,0834.1,5.00,000.00,029.3,027.9,000.0,037.7,031.0,24.4,0000.0,0009.12,0004.49,0003.88
2023-07-19 11:24:00,SystemResetWarning,0834.2,5.00,000.00,029.3,028.0,000.0,037.7,031.0,24.2,0000.0,0009.21,0004.49,0003.87
2023-07-19 11:25:00,SystemResetWarning,0834.1,4.99,000.00,029.4,028.1,000.0,037.8,031.0,24.1,0000.0,0009.45,0004.51,0003.88
2023-07-19 11:26:00,SystemResetWarning,0834.2,5.00,000.00,029.4,028.2,000.0,037.8,031.1,24.1,0000.0,0009.39,0004.51,0003.88
2023-07-19 11:27:00,SystemResetWarning,0834.2,4.99,000.00,029.4,028.3,000.0,037.8,031.1,24.2,0000.0,0009.29,0004.50,0003.88
2023-07-19 11:28:00,SystemResetWarning,0834.2,4.99,000.00,029.5,028.3,000.0,037.8,031.2,24.1,0000.0,0009.44,0004.56,0003.88
2023-07-19 11:29:00,SystemResetWarning,0834.1,4.99,000.00,029.5,026.9,000.0,037.7,031.0,24.1,0000.0,0009.27,0004.57,0003.88
2023-07-19 11:30:00,SystemResetWarning,0834.1,5.00,000.00,029.4,025.6,000.0,037.6,030.7,24.0,0000.0,0009.23,0004.55,0003.89
2023-07-19 11:31:00,SystemResetWarning,0834.1,5.01,000.00,029.3,025.6,000.0,037.6,030.6,24.1,0000.0,0008.82,0004.51,0003.89
2023-07-19 11:32:00,SystemResetWarning,0834.0,5.01,000.00,029.2,025.9,000.0,037.7,030.5,24.1,0000.0,0008.73,0004.48,0003.89
2023-07-19 11:33:00,SystemResetWarning,0834.1,4.99,000.00,029.2,026.3,000.0,037.7,030.6,24.2,0000.0,0008.71,0004.46,0003.89
2023-07-19 11:34:00,SystemResetWarning,0834.0,5.00,000.00,029.2,026.6,000.0,037.7,030.7,24.1,0000.0,0008.77,0004.44,0003.89
2023-07-19 11:35:00,SystemResetWarning,0834.0,5.01,000.00,029.2,027.0,000.0,037.7,030.7,24.1,0000.0,0008.97,0004.43,0003.88
2023-07-19 11:36:00,SystemResetWarning,0834.0,5.00,000.00,029.2,027.2,000.0,037.7,030.8,24.1,0000.0,0009.58,0004.40,0003.88
2023-07-19 11:37:00,SystemResetWarning,0833.9,5.00,000.00,029.2,027.5,000.0,037.7,030.8,24.0,0000.0,0010.13,0004.37,0003.86
2023-07-19 11:38:00,SystemResetWarning,0833.9,4.99,000.00,029.3,027.7,000.0,037.7,030.9,24.0,0000.0,0009.88,0004.36,0003.84
2023-07-19 11:39:00,SystemResetWarning,0834.0,5.00,000.00,029.3,027.8,000.0,037.7,030.9,24.2,0000.0,0009.76,0004.34,0003.83
2023-07-19 11:40:00,SystemResetWarning,0834.0,4.99,000.00,029.3,028.0,000.0,037.8,031.0,24.2,0000.0,0009.64,0004.28,0003.81
2023-07-19 11:41:00,SystemResetWarning,0834.0,5.00,000.00,029.4,028.1,000.0,037.8,031.0,24.1,0000.0,0009.81,0004.29,0003.80
2023-07-19 11:42:00,SystemResetWarning,0834.0,5.00,000.00,029.4,028.2,000.0,037.8,031.1,24.0,0000.0,0009.57,0004.28,0003.79
2023-07-19 11:43:00,SystemResetWarning,0834.0,5.00,000.00,029.4,028.3,000.0,037.8,031.1,23.9,0000.0,0009.58,0004.28,0003.77
2023-07-19 11:44:00,SystemResetWarning,0834.1,5.00,000.00,029.5,028.4,000.0,037.9,031.2,24.1,0000.0,0009.59,0004.29,0003.76
2023-07-19 11:45:00,SystemResetWarning,0834.1,5.00,000.00,029.5,027.9,000.0,037.8,031.2,24.4,0000.0,0009.44,0004.25,0003.74
2023-07-19 11:46:00,SystemResetWarning,0834.0,5.00,000.00,029.5,026.2,000.0,037.7,030.9,24.2,0000.0,0009.13,0004.21,0003.72
2023-07-19 11:47:00,SystemResetWarning,0834.0,5.01,000.00,029.4,025.7,000.0,037.6,030.7,24.2,0000.0,0008.36,0004.19,0003.70
2023-07-19 11:48:00,SystemResetWarning,0834.0,5.01,000.00,029.3,025.9,000.0,037.7,030.6,24.3,0000.0,0007.44,0004.17,0003.69
2023-07-19 11:49:00,SystemResetWarning,0834.0,4.99,000.00,029.2,026.2,000.0,037.7,030.6,24.2,0000.0,0007.38,0004.14,0003.69
2023-07-19 11:50:00,SystemResetWarning,0834.0,4.99,000.00,029.2,026.6,000.0,037.7,030.7,24.4,0000.0,0007.80,0004.13,0003.68
2023-07-19 11:51:00,SystemResetWarning,0834.0,4.99,000.00,029.2,026.9,000.0,037.7,030.8,24.2,0000.0,0007.72,0004.11,0003.68
2023-07-19 11:52:00,SystemResetWarning,0834.1,5.00,000.00,029.3,027.2,000.0,037.7,030.8,24.4,0000.0,0007.33,0004.05,0003.66
2023-07-19 11:53:00,SystemResetWarning,0834.1,5.01,000.00,029.3,027.4,000.0,037.8,030.9,24.3,0000.0,0007.38,0004.03,0003.65
2023-07-19 11:54:00,SystemResetWarning,0834.1,5.01,000.00,029.3,027.6,000.0,037.8,030.9,24.5,0000.0,0007.60,0004.03,0003.65
2023-07-19 11:55:00,SystemResetWarning,0834.1,5.00,000.00,029.3,027.8,000.0,037.8,031.0,24.6,0000.0,0008.07,0004.00,0003.64
2023-07-19 11:56:00,SystemResetWarning,0834.1,5.00,000.00,029.4,028.0,000.0,037.8,031.0,24.8,0000.0,0008.28,0004.02,0003.64
2023-07-19 11:57:00,SystemResetWarning,0834.1,5.00,000.00,029.4,028.1,000.0,037.8,031.1,24.8,0000.0,0008.40,0004.05,0003.66
2023-07-19 11:58:00,SystemResetWarning,0834.1,5.00,000.00,029.4,028.2,000.0,037.8,031.1,24.8,0000.0,0008.46,0004.08,0003.67
2023-07-19 11:59:00,SystemResetWarning,0834.1,5.00,000.00,029.5,028.3,000.0,037.9,031.2,24.9,0000.0,0008.52,0004.10,0003.68
